User: anonymous
Location: Squamish
(49.7000°N, 123.1500°W)
Time: 08:48:22
(UTC-07:00)
Language:

NOAA 19 - Orbit

View from above orbital plane
View from above orbital plane
View from above satellite
View from above satellite

Ground track
Ground track

The orbit data is extracted from the following two-line orbital elements,

1 33591U 09005A   14261.48039315  .00000313  00000-0  19606-3 0  3819
2 33591 098.9527 206.2718 0013425 212.4879 256.0300 14.11762396289158
Epoch (UTC): 18 September 2014 11:31:45
Eccentricity: 0.0013425
inclination: 98.9527°
perigee height: 843 km
apogee height: 863 km
right ascension of ascending node: 206.2718°
argument of perigee: 212.4879°
revolutions per day: 14.11762396
mean anomaly at epoch: 256.0300°
orbit number at epoch: 28915

The dashed part of the orbit path shows where the satellite is in the earth's shadow,  

DLR